Find Starlink 35298

NORAD ID: 65842 Int'l Des: 2025-221 Owner: SPXS Country: US Constellation: starlink operational
LEOCIRCULAR

Aktuelle Ansicht

3D-Globus wird geladen...

Über Starlink 35298

Beschreibung wird geladen...

Nächste Überflüge

Passes for default location (London). Set your location on the main map for personalized predictions.

Höhenverlauf

Loading altitude history...

Zweizeiliger Elementsatz

1 65842U 25221V 26146.12083756 .00019500 00000-0 58682-3 0 9995
2 65842 53.1588 88.3114 0001119 83.8635 276.2495 15.34396436 36599
Epoch: 26. Mai 2026 • Age: 20 hours

Aktueller Status

Höhe 478.9 km
Geschwindigkeit 7.63 km/s
Subsatellitenpunkt -45.95°S, 165.32°E
Startdatum 29. Sept. 2025
Alter 0.6 years
Typ internet

Technische Details

Klassifizierung Payload
Masse 575.00 kg
Trockenmasse 530.00 kg
Gesamtmasse 575.00 kg
Länge 0.30 m
Durchmesser 4.10 m
Spannweite 29.00 m
Form Box + pan
Hersteller SPXS
Bus-Typ Starlink V2MO
Phasenstatus In Orbit
Besitzer/Staat SPXS/US

Most Searched